Regional Weather Roundup
Issued by NWS Albany, NY

Home | Current Version | Previous Version | Graphics & Text | Print | Product List | Glossary On
Versions: 1 2 3 4 5 6 7 8 9 10 11 12 13 14 15 16 17 18 19 20 21 22 23 24 25 26 27 28 29 30 31 32 33 34 35 36 37 38 39 40 41 42 43 44 45 46 47 48 49 50
249
ASUS41 KALY 232110
RWRALY

NEW YORK STATE HOURLY WEATHER ROUNDUP
NATIONAL WEATHER SERVICE ALBANY NY
500 PM EDT MON MAY 23 2016

NOTE: "FAIR" INDICATES FEW OR NO CLOUDS BELOW 12,000 FEET WITH NO
SIGNIFICANT WEATHER AND/OR NO OBSTRUCTIONS TO VISIBILITY.

NYZ032-033-038>043-046>054-057>066-NYZ062>081-082-084-232200-
EAST


CITY           SKY/WX    TMP DP  RH WIND       PRES   REMARKS
ALBANY         MOSUNNY   81  36  19 N12       29.86F
GLENS FALLS    SUNNY     80  37  21 NE15      29.87F
POUGHKEEPSIE   LGT RAIN  76  51  41 N18G24    29.84F
NEWBURGH       MOSUNNY   77  52  41 E6        29.86F
MONTGOMERY     CLOUDY    77  52  41 E3        29.84F
WHITE PLAINS   PTSUNNY   72  49  44 SE9       29.85F
ISLIP          PTSUNNY   68  43  40 SE14      29.87S
NEW YORK CITY  PTSUNNY   72  55  55 S16       29.86S
CENTRAL PARK   MOSUNNY   72  50  45 VRB5      29.89S
$$

NYZ005>009-017-018-044>046-055-056-232200-
CENTRAL


CITY           SKY/WX    TMP DP  RH WIND       PRES   REMARKS
FULTON         SUNNY     78  47  33 NW12      29.94F
SYRACUSE       MOSUNNY   77  39  25 N14       29.92F
ROME           MOSUNNY   79  47  32 N12G17    29.89F
ELMIRA         SUNNY     77  39  25 N15G23    29.93F
BINGHAMTON     CLOUDY    73  44  35 N16       29.92F
MONTICELLO     MOSUNNY   73  39  29 NE13      29.89F
$$

NYZ026>034-041>043-087-232200-
NORTH


CITY           SKY/WX    TMP DP  RH WIND       PRES   REMARKS
WATERTOWN      SUNNY     70  46  42 W7        29.93F
FORT DRUM      NOT AVBL
MASSENA        SUNNY     81  40  23 NW3       29.91F
SARANAC LAKE   SUNNY     76  30  18 NE12      29.92F
PLATTSBURGH    SUNNY     79  37  22 NE10      29.90F
$$

NYZ001>004-010>016-019>021-085-232200-
WEST


CITY           SKY/WX    TMP DP  RH WIND       PRES   REMARKS
NIAGARA FALLS  MOSUNNY   79  39  23 NW8       29.96F
BUFFALO        MOSUNNY   78  38  23 N6        29.97F
DUNKIRK        SUNNY     69  43  38 W10       29.99F
JAMESTOWN        N/A    N/A N/A N/A MISG        N/A
WELLSVILLE     MOSUNNY   74  40  29 N10G20    29.99F
ROCHESTER      SUNNY     78  42  27 N13       29.97F
PENN YAN         N/A     78  37  22 MISG      29.97F
$$

             KEY
       WCI = WIND CHILL INDEX
       VSB = VISIBILITY
       HX  = HEAT INDEX
$$




USA.gov is the U.S. government's official web portal to all federal, state and local government web resources and services.